Visibility
15.0 15.0 15.0 15.0 15.0 15.0 15.0 15.0 15.0 15.0 15.0 15.0 15.0 15.0 15.0 15.0 15.0 15.0 15.0 15.0 15.0 15.0 15.0 15.0 15.0 15.0 15.0 15.0 12.9 15.0 15.0 15.0 15.0 15.0 15.0 15.0 15.0 15.0 15.0 15.0 15.0 15.0 15.0 15.0 15.0 15.0 15.0
15.0 15.0 15.0 15.0 15.0 15.0 15.0 15.0 15.0 15.0 15.0 15.0 15.0 15.0 15.0 15.0 15.0 15.0 15.0 15.0 15.0 15.0 15.0 15.0 15.0 15.0 15.0 0.1 15.0 15.0 15.0 15.0 15.0 15.0 15.0 15.0 15.0 15.0 15.0 15.0 15.0 15.0 15.0 15.0 15.0 15.0 15.0
15.0 15.0 15.0 15.0 15.0 15.0 15.0 15.0 15.0 15.0 15.0 15.0 15.0 15.0 15.0 15.0 15.0 15.0 15.0 15.0 15.0 15.0 15.0 15.0 15.0 15.0 15.0 14.1 15.0 15.0 15.0 15.0 15.0 15.0 15.0 15.0 15.0 15.0 15.0 15.0 15.0 15.0 15.0 15.0 15.0 15.0 15.0
15.0 15.0 15.0 15.0 15.0 15.0 15.0 15.0 15.0 15.0 15.0 15.0 15.0 15.0 15.0 15.0 15.0 15.0 15.0 15.0 15.0 15.0 15.0 15.0 15.0 15.0 15.0 15.0 15.0 15.0 15.0 15.0 15.0 15.0 15.0 15.0 15.0 15.0 15.0 15.0 15.0 15.0 15.0 15.0 15.0 15.0 15.0
15.0 15.0 15.0 15.0 15.0 15.0 15.0 15.0 15.0 15.0 15.0 15.0 15.0 15.0 15.0 15.0 15.0 15.0 15.0 15.0 15.0 15.0 15.0 15.0 15.0 15.0 15.0 15.0 15.0 15.0 15.0 15.0 15.0 15.0 14.9 15.0 15.0 15.0 15.0 15.0 15.0 15.0 15.0 15.0 15.0 15.0 15.0
15.0 15.0 15.0 15.0 15.0 15.0 15.0 15.0 15.0 15.0 15.0 15.0 15.0 15.0 15.0 15.0 15.0 15.0 15.0 15.0 15.0 15.0 15.0 15.0 15.0 0.2 15.0 15.0 15.0 15.0 15.0 15.0 15.0 15.0 15.0 15.0 15.0 12.6 15.0 15.0 0.2 15.0 15.0 15.0 15.0 15.0 15.0
15.0 15.0 15.0 15.0 15.0 15.0 15.0 15.0 15.0 15.0 15.0 15.0 15.0 15.0 15.0 15.0 15.0 15.0 15.0 15.0 15.0 15.0 15.0 14.9 15.0 15.0 15.0 15.0 15.0 15.0 15.0 15.0 15.0 15.0 15.0 15.0 15.0 15.0 15.0 15.0 15.0 15.0 15.0 15.0 15.0 15.0 15.0
15.0 15.0 15.0 15.0 15.0 15.0 15.0 15.0 15.0 15.0 15.0 15.0 15.0 15.0 15.0 15.0 15.0 15.0 15.0 15.0 15.0 15.0 15.0 15.0 15.0 15.0 15.0 15.0 15.0 15.0 15.0 15.0 15.0 15.0 15.0 15.0 15.0 15.0 15.0 15.0 15.0 15.0 15.0 15.0 15.0 15.0 15.0
15.0 15.0 15.0 15.0 15.0 15.0 15.0 15.0 15.0 15.0 15.0 15.0 15.0 15.0 15.0 15.0 15.0 15.0 15.0 15.0 15.0 15.0 5.1 15.0 15.0 15.0 15.0 15.0 15.0 15.0 15.0 15.0 15.0 15.0 15.0 15.0 15.0 15.0 15.0 15.0 15.0 15.0 15.0 15.0 15.0 15.0 15.0
15.0 15.0 15.0 15.0 15.0 15.0 15.0 15.0 15.0 14.7 15.0 15.0 15.0 15.0 15.0 15.0 15.0 15.0 15.0 15.0 15.0 15.0 12.0 15.0 15.0 15.0 15.0 15.0 15.0 15.0 15.0 15.0 15.0 15.0 15.0 15.0 15.0 15.0 15.0 15.0 15.0 15.0 15.0 15.0 15.0 15.0 15.0
15.0 15.0 15.0 15.0 15.0 15.0 13.6 12.7 15.0 15.0 15.0 15.0 15.0 15.0 15.0 15.0 15.0 15.0 15.0 15.0 15.0 14.5 0.1 15.0 15.0 15.0 15.0 15.0 15.0 15.0 15.0 15.0 15.0 15.0 15.0 15.0 15.0 15.0 15.0 15.0 15.0 15.0 15.0 15.0 15.0 15.0 1.1
15.0 15.0 15.0 15.0 15.0 15.0 15.0 15.0 15.0 15.0 15.0 15.0 15.0 15.0 15.0 15.0 15.0 15.0 15.0 15.0 15.0 1.1 0.7 15.0 15.0 14.5 15.0 15.0 15.0 15.0 15.0 15.0 15.0 10.3 15.0 15.0 15.0 15.0 15.0 15.0 15.0 15.0 14.0 5.0 3.5 0.2 0.1
15.0 15.0 15.0 15.0 15.0 15.0 15.0 15.0 15.0 15.0 15.0 15.0 15.0 15.0 15.0 15.0 15.0 15.0 15.0 15.0 7.0 0.6 15.0 1.3 15.0 15.0 12.2 2.0 0.6 0.2 12.4 15.0 15.0 15.0 15.0 15.0 15.0 15.0 15.0 15.0 15.0 15.0 5.1 0.1 0.1 0.1 3.2
15.0 15.0 15.0 15.0 15.0 15.0 15.0 15.0 15.0 15.0 15.0 15.0 15.0 15.0 15.0 15.0 15.0 15.0 15.0 15.0 3.5 3.8 4.7 15.0 15.0 15.0 2.5 13.5 1.7 14.1 0.9 0.1 0.2 0.2 1.2 0.7 3.4 15.0 15.0 15.0 15.0 15.0 15.0 13.4 13.6 0.5 15.0
15.0 15.0 15.0 15.0 15.0 15.0 15.0 15.0 15.0 15.0 15.0 15.0 15.0 15.0 15.0 15.0 15.0 15.0 15.0 1.3 0.1 0.3 0.2 0.2 15.0 15.0 15.0 15.0 15.0 15.0 15.0 1.0 0.1 0.1 0.1 0.1 0.5 11.1 15.0 15.0 15.0 15.0 15.0 15.0 15.0 13.1 13.3
15.0 15.0 15.0 15.0 15.0 15.0 15.0 15.0 15.0 15.0 15.0 15.0 15.0 15.0 15.0 15.0 15.0 15.0 15.0 6.3 6.2 2.5 15.0 14.4 0.2 15.0 15.0 15.0 15.0 15.0 15.0 8.5 15.0 15.0 15.0 0.2 0.3 0.6 9.5 11.1 15.0 15.0 9.3 1.0 1.3 0.1 0.1
15.0 15.0 15.0 15.0 15.0 15.0 15.0 15.0 15.0 15.0 15.0 15.0 15.0 15.0 15.0 15.0 15.0 15.0 5.9 12.2 15.0 15.0 15.0 15.0 0.8 3.7 15.0 15.0 15.0 15.0 1.5 3.5 15.0 15.0 15.0 13.5 2.4 15.0 14.6 1.6 2.7 0.3 0.1 0.9 0.5 0.1 0.1
15.0 15.0 15.0 15.0 15.0 15.0 15.0 15.0 15.0 15.0 15.0 15.0 15.0 15.0 15.0 15.0 15.0 15.0 15.0 15.0 15.0 15.0 15.0 15.0 14.6 0.5 0.1 2.6 15.0 15.0 5.3 14.5 15.0 15.0 15.0 15.0 3.3 4.9 3.4 0.1 0.1 0.1 0.1 0.9 0.2 0.9 0.1
15.0 15.0 15.0 15.0 15.0 15.0 15.0 15.0 15.0 15.0 15.0 15.0 15.0 15.0 15.0 15.0 6.1 13.7 15.0 15.0 15.0 15.0 15.0 15.0 15.0 14.0 7.4 1.7 0.2 15.0 13.9 15.0 15.0 15.0 9.6 15.0 15.0 12.5 3.9 0.1 12.9 0.4 0.1 0.1 0.3 5.7 0.1
15.0 15.0 15.0 15.0 15.0 15.0 15.0 15.0 15.0 15.0 15.0 15.0 15.0 10.3 15.0 15.0 15.0 9.4 3.1 15.0 15.0 15.0 15.0 15.0 6.9 11.7 15.0 0.9 0.7 0.4 15.0 15.0 15.0 15.0 15.0 15.0 8.1 15.0 14.8 7.3 7.8 0.4 7.1 0.8 0.1 0.2 1.1
15.0 15.0 15.0 15.0 15.0 15.0 15.0 15.0 15.0 15.0 15.0 15.0 14.6 11.9 0.1 2.0 15.0 2.5 2.8 0.4 1.8 3.1 15.0 15.0 15.0 14.3 0.1 0.2 0.8 0.3 14.4 11.0 15.0 15.0 15.0 15.0 15.0 10.0 15.0 15.0 15.0 15.0 15.0 1.5 3.0 1.4 14.5
15.0 15.0 15.0 15.0 15.0 15.0 15.0 15.0 15.0 15.0 15.0 15.0 0.1 0.1 3.7 7.2 14.6 9.2 1.5 5.5 2.6 8.0 5.6 14.8 0.3 1.6 0.2 0.1 0.1 0.1 0.1 0.1 8.1 15.0 14.9 15.0 14.9 6.8 15.0 15.0 15.0 15.0 15.0 10.6 1.5 15.0 15.0
15.0 15.0 15.0 15.0 15.0 15.0 15.0 15.0 15.0 15.0 15.0 15.0 4.1 10.8 0.0 14.5 3.5 10.3 0.8 1.2 4.9 0.2 14.3 0.4 0.4 0.3 1.9 0.2 0.1 0.7 0.4 2.7 5.5 0.3 0.7 12.2 4.3 13.1 15.0 15.0 15.0 15.0 15.0 15.0 15.0 15.0 15.0
15.0 15.0 15.0 15.0 15.0 15.0 15.0 15.0 15.0 15.0 15.0 15.0 15.0 5.1 0.2 5.7 7.6 0.3 2.4 11.0 15.0 15.0 0.1 13.8 12.9 1.8 14.2 15.0 15.0 15.0 15.0 12.2 13.9 15.0 1.9 0.5 0.5 0.2 15.0 15.0 15.0 1.2 15.0 15.0 15.0 15.0 15.0
15.0 15.0 15.0 15.0 15.0 15.0 15.0 15.0 15.0 15.0 15.0 15.0 15.0 0.2 0.0 2.2 0.3 15.0 14.6 3.0 15.0 15.0 14.8 2.5 15.0 12.4 15.0 15.0 15.0 15.0 15.0 15.0 15.0 9.0 1.0 0.1 0.1 0.1 0.7 4.4 12.4 0.1 0.8 15.0 15.0 15.0 11.3
15.0 15.0 15.0 15.0 15.0 15.0 15.0 15.0 15.0 15.0 15.0 15.0 15.0 15.0 0.1 0.1 0.1 2.3 8.3 6.1 0.8 2.4 15.0 15.0 15.0 15.0 15.0 15.0 15.0 1.7 1.5 1.9 14.1 15.0 1.6 0.3 0.1 0.5 1.3 14.7 0.1 0.1 0.1 15.0 15.0 0.2 3.0
15.0 15.0 15.0 15.0 15.0 15.0 15.0 15.0 15.0 15.0 15.0 15.0 15.0 15.0 9.9 0.1 2.1 15.0 3.1 0.3 9.1 1.7 0.9 0.4 10.7 7.2 15.0 9.0 5.0 1.8 5.0 6.9 2.5 0.1 0.1 0.3 0.5 0.2 0.1 0.1 0.2 0.3 1.2 15.0 15.0 14.2 3.9
15.0 15.0 15.0 15.0 15.0 15.0 15.0 15.0 15.0 15.0 15.0 15.0 11.3 15.0 10.0 13.7 13.5 15.0 15.0 4.3 9.5 13.2 0.6 15.0 14.8 11.8 10.8 9.0 3.6 2.4 2.8 3.8 10.2 1.2 0.1 0.2 0.1 0.3 1.0 3.3 0.2 0.2 15.0 7.3 0.1 0.1 0.8
15.0 15.0 15.0 15.0 15.0 15.0 15.0 15.0 15.0 15.0 15.0 15.0 15.0 15.0 15.0 15.0 14.2 15.0 15.0 15.0 15.0 14.3 0.3 8.2 0.9 0.1 0.1 0.1 2.3 0.9 1.3 4.0 1.6 5.0 15.0 2.2 0.1 0.1 0.3 0.1 0.1 0.3 0.1 0.2 0.8 2.0 1.3